TimeEDT,TemperatureF,Dew PointF,Humidity,Sea Level PressureIn,VisibilityMPH,Wind Direction,Wind SpeedMPH,Gust SpeedMPH,PrecipitationIn,Events,Conditions,WindDirDegrees,DateUTC
12:54 AM,32.0,23.0,69,30.21,10.0,Calm,Calm,-,N/A,,Clear,0,2013-03-27 04:54:00
1:54 AM,32.0,23.0,69,30.21,10.0,WNW,4.6,-,N/A,,Clear,300,2013-03-27 05:54:00
2:54 AM,30.9,21.9,69,30.21,10.0,WNW,4.6,-,N/A,,Clear,290,2013-03-27 06:54:00
3:54 AM,32.0,21.9,66,30.21,10.0,NW,5.8,-,N/A,,Clear,310,2013-03-27 07:54:00
4:54 AM,33.1,21.9,64,30.20,10.0,NW,4.6,-,N/A,,Clear,310,2013-03-27 08:54:00
5:54 AM,30.0,21.0,69,30.22,10.0,Calm,Calm,-,N/A,,Clear,0,2013-03-27 09:54:00
6:54 AM,28.0,21.9,78,30.24,10.0,Calm,Calm,-,N/A,,Clear,0,2013-03-27 10:54:00
7:54 AM,30.9,24.1,76,30.26,10.0,WNW,4.6,-,N/A,,Clear,300,2013-03-27 11:54:00
8:54 AM,37.9,24.1,57,30.27,10.0,NW,6.9,-,N/A,,Clear,310,2013-03-27 12:54:00
9:54 AM,43.0,23.0,45,30.27,10.0,NNW,11.5,-,N/A,,Clear,340,2013-03-27 13:54:00
10:54 AM,45.0,23.0,42,30.28,10.0,NW,11.5,17.3,0.00,,Clear,320,2013-03-27 14:54:00
11:54 AM,48.0,23.0,37,30.27,10.0,Variable,4.6,-,N/A,,Clear,0,2013-03-27 15:54:00
12:54 PM,48.9,21.9,35,30.26,10.0,WNW,4.6,17.3,N/A,,Clear,290,2013-03-27 16:54:00
1:54 PM,51.1,21.0,31,30.25,10.0,NNW,15.0,19.6,0.00,Rain,Light Rain,340,2013-03-27 17:54:00
2:54 PM,53.1,23.0,31,30.22,10.0,North,-9999.0,-,0.00,,Clear,0,2013-03-27 18:54:00
3:54 PM,54.0,21.0,28,30.21,10.0,NW,12.7,19.6,0.00,,Clear,320,2013-03-27 19:54:00
4:54 PM,55.0,19.9,25,30.19,10.0,North,11.5,-,0.00,,Clear,360,2013-03-27 20:54:00
5:54 PM,54.0,21.0,28,30.19,10.0,NW,8.1,-,0.00,,Clear,310,2013-03-27 21:54:00
6:54 PM,51.1,21.0,31,30.20,10.0,NNE,8.1,-,N/A,,Clear,20,2013-03-27 22:54:00
7:54 PM,46.0,24.1,42,30.22,10.0,NNE,9.2,-,N/A,,Clear,20,2013-03-27 23:54:00
8:54 PM,43.0,23.0,45,30.24,10.0,NNE,9.2,-,N/A,,Clear,20,2013-03-28 00:54:00
9:54 PM,43.0,21.9,43,30.26,10.0,NNE,16.1,20.7,N/A,,Clear,20,2013-03-28 01:54:00
10:54 PM,41.0,21.9,47,30.27,10.0,NNE,11.5,-,N/A,,Clear,20,2013-03-28 02:54:00
11:54 PM,39.0,21.9,50,30.27,10.0,NNE,8.1,-,N/A,,Clear,20,2013-03-28 03:54:00